N3FWE Weather Reports


time (UTC)temp
C
wind
direction
speed
KPH
gust
KPH
rain 1hr
cm
rain 24hr
cm
rain mn
cm
humidity
%
barometer
mb
20260510045000 10 194 0.0 0.0 0.00 0.51 0.00 93 1011.7
20260510044002 9 194 0.0 0.0 0.00 0.51 0.00 91 1011.5
20260510043003 9 194 0.0 0.0 0.00 0.51 0.00 91 1011.4
20260510042002 9 194 0.0 0.0 0.00 0.51 0.00 91 1011.3
20260510041002 10 194 0.0 0.0 0.00 0.51 0.00 91 1011.3
20260510040005 10 194 0.0 0.0 0.00 0.51 0.00 90 1011.4
20260510035002 10 194 0.0 0.0 0.00 0.51 0.51 90 1011.4
20260510034001 10 194 0.0 0.0 0.00 0.51 0.51 90 1011.5
20260510033002 10 194 0.0 0.0 0.00 0.51 0.51 90 1011.6
20260510032002 10 194 0.0 0.0 0.00 0.51 0.51 90 1011.5
20260510031002 10 194 0.0 0.0 0.00 0.51 0.51 90 1011.5
20260510030003 10 194 0.0 0.0 0.00 0.51 0.51 90 1011.4
20260510025001 11 194 0.0 0.0 0.00 0.51 0.51 89 1011.4
20260510024001 11 194 0.0 0.0 0.00 0.51 0.51 89 1011.3
20260510023001 11 194 0.0 0.0 0.00 0.51 0.51 89 1011.3
20260510022001 11 194 0.0 0.0 0.00 0.51 0.51 89 1011.4
20260510020003 11 194 0.0 0.0 0.00 0.51 0.51 89 1011.2
20260510015002 11 194 0.0 0.0 0.00 0.51 0.51 89 1010.9
20260510013002 12 194 0.0 0.0 0.00 0.51 0.51 88 1010.7
20260510012001 12 194 0.0 0.0 0.00 0.51 0.51 88 1010.6
20260510011001 12 194 0.0 0.0 0.00 0.51 0.51 87 1010.6
20260510010005 13 194 0.0 0.0 0.00 0.51 0.51 87 1010.4
20260510005001 13 194 0.0 0.0 0.00 0.51 0.51 86 1010.3
20260510004002 13 194 0.0 0.0 0.00 0.51 0.51 85 1010.1
20260510003003 14 194 0.0 0.0 0.00 0.51 0.51 83 1010.2
20260510002001 15 194 0.0 0.0 0.00 0.51 0.51 82 1010.3
20260510001002 15 194 0.0 0.0 0.00 0.51 0.51 81 1009.9
20260510000003 15 194 0.0 0.0 0.00 0.51 0.51 80 1009.6
20260509235002 16 194 0.0 0.0 0.00 0.51 0.51 79 1009.7
20260509234001 16 194 0.0 0.0 0.00 0.51 0.51 78 1009.6
20260509233003 16 194 0.0 0.0 0.00 0.51 0.51 77 1009.6
20260509232002 16 194 0.0 0.0 0.00 0.51 0.51 76 1009.6
20260509231001 16 194 0.0 0.0 0.00 0.51 0.51 77 1009.6
20260509230005 16 194 0.0 0.0 0.00 0.51 0.51 77 1009.5
20260509225001 16 194 0.0 3.2 0.00 0.51 0.51 76 1009.7
20260509224001 16 194 0.0 4.8 0.00 0.51 0.51 75 1009.7
20260509221001 16 211 0.0 0.0 0.00 0.51 0.51 77 1009.8
20260509220004 16 211 1.6 4.8 0.00 0.51 0.51 77 1009.7
20260509215002 16 221 1.6 1.6 0.00 0.51 0.51 82 1009.8
20260509214001 16 221 1.6 4.8 0.00 0.51 0.51 80 1009.9
20260509213002 15 221 0.0 3.2 0.00 0.51 0.51 85 1010.0
20260509212001 15 223 0.0 3.2 0.00 0.51 0.51 86 1010.1
20260509211002 15 92 0.0 0.0 0.00 0.51 0.51 90 1010.2
20260509210003 14 91 1.6 4.8 0.00 0.51 0.51 90 1010.4
20260509204001 13 88 0.0 0.0 0.00 0.51 0.51 92 1010.8
20260509203001 13 88 0.0 0.0 0.00 0.51 0.51 93 1010.9
20260509202001 13 88 0.0 0.0 0.00 0.51 0.51 92 1011.1
20260509201001 13 88 0.0 3.2 0.00 0.51 0.51 92 1010.9
20260509200003 13 88 0.0 0.0 0.00 0.51 0.51 92 1010.7
20260509195001 13 88 0.0 0.0 0.00 0.51 0.51 92 1010.6
20260509193002 13 88 1.6 3.2 0.00 0.51 0.51 92 1011.1
20260509192002 13 88 1.6 4.8 0.03 0.51 0.51 92 1011.1
20260509191001 13 117 0.0 0.0 0.03 0.51 0.51 93 1011.3
20260509190004 13 117 0.0 0.0 0.03 0.51 0.51 93 1011.4
20260509185002 13 117 0.0 0.0 0.03 0.51 0.51 93 1011.6
20260509184000 13 117 0.0 0.0 0.03 0.51 0.51 92 1011.8
20260509183001 13 117 0.0 0.0 0.03 0.51 0.51 92 1011.6
20260509182000 13 117 0.0 0.0 0.00 0.48 0.48 92 1011.7
20260509180001 12 123 0.0 0.0 0.00 0.48 0.48 92 1011.5
20260509175000 12 123 0.0 0.0 0.03 0.48 0.48 92 1011.7
20260509174000 12 123 0.0 0.0 0.03 0.48 0.48 93 1011.8
20260509173000 12 123 0.0 0.0 0.03 0.48 0.48 92 1012.1
20260509172000 12 123 0.0 0.0 0.05 0.48 0.48 92 1012.4
20260509171000 12 123 0.0 0.0 0.05 0.48 0.48 92 1012.3
20260509170001 12 123 1.6 4.8 0.08 0.48 0.48 92 1012.4
20260509165000 12 115 0.0 3.2 0.08 0.46 0.46 92 1012.4
20260509164000 12 71 0.0 1.6 0.10 0.46 0.46 93 1012.3
20260509163000 12 117 0.0 3.2 0.15 0.46 0.46 92 1011.8
20260509162000 11 59 0.0 3.2 0.20 0.43 0.43 91 1011.6
20260509161000 11 59 3.2 6.4 0.30 0.43 0.43 90 1011.4
20260509160004 12 59 0.0 3.2 0.33 0.41 0.41 90 1011.9
20260509155000 12 59 0.0 3.2 0.33 0.38 0.38 90 1012.2
20260509154000 12 59 0.0 0.0 0.33 0.36 0.36 89 1012.5
20260509153000 12 59 0.0 0.0 0.28 0.30 0.30 88 1012.9
20260509152001 12 59 0.0 0.0 0.23 0.23 0.23 88 1013.1
20260509151000 12 59 0.0 0.0 0.13 0.13 0.13 87 1013.2
20260509144000 12 59 0.0 0.0 0.03 0.03 0.03 84 1012.6
20260509143000 12 59 0.0 0.0 0.03 0.03 0.03 82 1012.5
20260509142000 12 59 0.0 0.0 0.00 0.00 0.00 81 1012.5
20260509141000 12 59 0.0 0.0 0.00 0.00 0.00 80 1012.5
20260509140001 12 59 0.0 0.0 0.00 0.00 0.00 80 1012.2
20260509135001 12 59 0.0 0.0 0.00 0.00 0.00 81 1012.2
20260509133000 12 59 0.0 0.0 0.00 0.00 0.00 82 1012.3
20260509132000 12 59 0.0 0.0 0.00 0.00 0.00 82 1012.1
20260509131000 12 59 0.0 0.0 0.00 0.00 0.00 83 1011.9
20260509130001 12 59 0.0 3.2 0.00 0.00 0.00 84 1011.7
20260509125000 12 59 0.0 0.0 0.00 0.00 0.00 83 1011.5
20260509124000 12 59 0.0 4.8 0.00 0.00 0.00 83 1011.5
20260509123000 12 60 0.0 0.0 0.00 0.00 0.00 81 1012.0
20260509122000 12 60 0.0 0.0 0.00 0.00 0.00 80 1012.4
20260509121000 12 60 0.0 0.0 0.00 0.00 0.00 80 1012.4
20260509120001 12 60 0.0 0.0 0.00 0.00 0.00 80 1012.2
20260509114959 12 60 0.0 0.0 0.00 0.00 0.00 79 1012.0
20260509114000 12 60 0.0 0.0 0.00 0.00 0.00 78 1011.7
20260509113000 11 60 0.0 0.0 0.00 0.00 0.00 78 1011.8
20260509112000 11 60 0.0 0.0 0.00 0.00 0.00 78 1012.0
20260509111000 11 65 0.0 1.6 0.00 0.00 0.00 77 1011.6
20260509110001 11 65 0.0 3.2 0.00 0.00 0.00 76 1011.6
20260509105001 11 65 0.0 4.8 0.00 0.00 0.00 75 1011.4
20260509104000 11 78 1.6 3.2 0.00 0.00 0.00 75 1011.3
20260509103000 11 86 1.6 4.8 0.00 0.00 0.00 74 1011.3
20260509102000 11 78 0.0 0.0 0.00 0.00 0.00 74 1011.4
20260509101000 11 78 1.6 4.8 0.00 0.00 0.00 74 1011.4
20260509100001 11 79 0.0 4.8 0.00 0.00 0.00 74 1011.3
20260509095000 11 72 1.6 3.2 0.00 0.00 0.00 73 1011.1
20260509094000 11 72 1.6 3.2 0.00 0.00 0.00 74 1011.2
20260509093000 12 70 0.0 0.0 0.00 0.00 0.00 73 1011.4
20260509092000 12 70 0.0 0.0 0.00 0.00 0.00 73 1011.4
20260509091000 12 70 0.0 3.2 0.00 0.00 0.00 73 1011.2
20260509090001 12 70 0.0 3.2 0.00 0.00 0.00 73 1011.3
20260509085000 12 70 1.6 3.2 0.00 0.00 0.00 74 1011.3
20260509084000 11 53 0.0 0.0 0.00 0.00 0.00 75 1011.4
20260509083000 11 53 0.0 0.0 0.00 0.00 0.00 75 1011.6
20260509082001 11 53 0.0 0.0 0.00 0.00 0.00 76 1011.6
20260509081000 11 53 0.0 0.0 0.00 0.00 0.00 77 1011.5
20260509080001 11 53 0.0 0.0 0.00 0.00 0.00 77 1011.7
20260509075000 11 53 0.0 0.0 0.00 0.00 0.00 76 1011.7
20260509074000 11 53 0.0 0.0 0.00 0.00 0.00 77 1011.7
20260509073000 11 53 0.0 0.0 0.00 0.00 0.00 76 1011.9
20260509072000 11 53 0.0 0.0 0.00 0.00 0.00 75 1011.8
20260509071000 11 53 0.0 0.0 0.00 0.00 0.00 76 1011.9
20260509070001 11 51 0.0 0.0 0.00 0.00 0.00 75 1012.2
20260509065000 12 51 0.0 0.0 0.00 0.00 0.00 73 1012.2
20260509064000 12 51 0.0 0.0 0.00 0.00 0.00 71 1012.2
20260509062959 12 51 1.6 4.8 0.00 0.00 0.00 70 1012.2
20260509062000 12 47 0.0 0.0 0.00 0.00 0.00 69 1012.4
20260509061000 13 47 0.0 1.6 0.00 0.00 0.00 67 1012.4
20260509060001 13 47 0.0 0.0 0.00 0.00 0.00 67 1012.3
20260509053958 12 47 1.6 8.0 0.00 0.00 0.00 69 1012.4
20260509052958 12 335 0.0 0.0 0.00 0.00 0.00 72 1012.5
20260509050959 12 302 0.0 0.0 0.00 0.00 0.00 74 1012.7
20260509045959 12 302 0.0 0.0 0.00 0.00 0.00 75 1012.7